Time,TemperatureF,DewpointF,PressureIn,WindDirection,WindDirectionDegrees,WindSpeedMPH,WindSpeedGustMPH,Humidity,HourlyPrecipIn,Conditions,Clouds,dailyrainin,SoftwareType,DateUTC
2013-01-12 00:02:00,51.0,42.0,-100.00,SW,235,12.0,21.0,71,0.00,,,-99.99,,2013-01-12 06:02:00,
2013-01-12 00:12:00,51.0,42.0,-100.00,SW,235,14.0,21.0,71,0.00,,,-99.99,,2013-01-12 06:12:00,
2013-01-12 00:22:00,50.0,42.0,-100.00,WSW,240,14.0,21.0,72,0.00,,,-99.99,,2013-01-12 06:22:00,
2013-01-12 00:32:00,51.0,42.0,-100.00,SW,230,13.0,21.0,72,0.00,,,-99.99,,2013-01-12 06:32:00,
2013-01-12 00:42:00,51.0,42.0,-100.00,SW,230,13.0,21.0,72,0.00,,,-99.99,,2013-01-12 06:42:00,
2013-01-12 00:52:00,50.0,42.0,-100.00,WSW,240,13.0,20.0,72,0.00,,,-99.99,,2013-01-12 06:52:00,
2013-01-12 01:02:00,50.0,42.0,-100.00,WSW,240,13.0,20.0,72,0.00,,,-99.99,,2013-01-12 07:02:00,
2013-01-12 01:12:00,50.0,42.0,-100.00,WSW,245,14.0,20.0,72,0.00,,,-99.99,,2013-01-12 07:12:00,
2013-01-12 01:22:00,51.0,42.0,-100.00,WSW,255,17.0,26.0,71,0.00,,,-99.99,,2013-01-12 07:22:00,
2013-01-12 01:32:00,51.0,42.0,-100.00,WSW,255,14.0,22.0,69,0.00,,,-99.99,,2013-01-12 07:32:00,
2013-01-12 01:42:00,51.0,42.0,-100.00,WSW,255,14.0,22.0,69,0.00,,,-99.99,,2013-01-12 07:42:00,
2013-01-12 01:52:00,51.0,42.0,-100.00,WSW,245,16.0,23.0,68,0.00,,,-99.99,,2013-01-12 07:52:00,
2013-01-12 02:02:00,51.0,42.0,-100.00,WSW,245,16.0,23.0,68,0.00,,,-99.99,,2013-01-12 08:02:00,
2013-01-12 02:11:00,51.0,42.0,-100.00,WSW,255,14.0,23.0,68,0.00,,,-99.99,,2013-01-12 08:11:00,
2013-01-12 02:22:00,51.0,41.0,-100.00,West,260,15.0,21.0,69,0.00,,,-99.99,,2013-01-12 08:22:00,
2013-01-12 02:32:00,51.0,42.0,-100.00,WSW,250,16.0,21.0,69,0.00,,,-99.99,,2013-01-12 08:32:00,
2013-01-12 02:42:00,51.0,42.0,-100.00,WSW,250,16.0,21.0,69,0.00,,,-99.99,,2013-01-12 08:42:00,
2013-01-12 02:52:00,52.0,42.0,-100.00,WSW,255,14.0,21.0,68,0.00,,,-99.99,,2013-01-12 08:52:00,
2013-01-12 03:02:00,52.0,42.0,-100.00,WSW,255,14.0,21.0,68,0.00,,,-99.99,,2013-01-12 09:02:00,
2013-01-12 03:12:00,51.0,41.0,-100.00,WSW,245,16.0,23.0,68,0.00,,,-99.99,,2013-01-12 09:12:00,
2013-01-12 03:22:00,51.0,41.0,-100.00,WSW,245,15.0,23.0,69,0.00,,,-99.99,,2013-01-12 09:22:00,
2013-01-12 03:32:00,51.0,41.0,-100.00,West,265,15.0,22.0,69,0.00,,,-99.99,,2013-01-12 09:32:00,
2013-01-12 03:42:00,51.0,41.0,-100.00,West,265,15.0,22.0,69,0.00,,,-99.99,,2013-01-12 09:42:00,
2013-01-12 03:52:00,49.0,41.0,-100.00,West,260,14.0,20.0,73,0.00,,,-99.99,,2013-01-12 09:52:00,
2013-01-12 04:02:00,49.0,41.0,-100.00,West,260,14.0,20.0,73,0.00,,,-99.99,,2013-01-12 10:02:00,
2013-01-12 04:12:00,49.0,41.0,-100.00,West,265,14.0,19.0,74,0.00,,,-99.99,,2013-01-12 10:12:00,
2013-01-12 04:22:00,49.0,41.0,-100.00,West,265,12.0,18.0,74,0.00,,,-99.99,,2013-01-12 10:22:00,
2013-01-12 04:32:00,49.0,41.0,-100.00,West,280,14.0,20.0,74,0.00,,,-99.99,,2013-01-12 10:32:00,
2013-01-12 04:42:00,49.0,41.0,-100.00,West,280,14.0,20.0,74,0.00,,,-99.99,,2013-01-12 10:42:00,
2013-01-12 04:52:00,43.0,35.0,-100.00,NW,310,26.0,38.0,71,0.00,,,-99.99,,2013-01-12 10:52:00,
2013-01-12 05:02:00,43.0,35.0,-100.00,NW,310,26.0,38.0,71,0.00,,,-99.99,,2013-01-12 11:02:00,
2013-01-12 05:12:00,42.0,34.0,-100.00,NW,320,23.0,34.0,74,0.00,,,-99.99,,2013-01-12 11:12:00,
2013-01-12 05:22:00,41.0,34.0,-100.00,NW,315,22.0,30.0,75,0.00,,,-99.99,,2013-01-12 11:22:00,
2013-01-12 05:32:00,40.0,33.0,-100.00,NW,320,21.0,29.0,77,0.00,,,-99.99,,2013-01-12 11:32:00,
2013-01-12 05:42:00,40.0,33.0,-100.00,NW,320,21.0,29.0,77,0.00,,,-99.99,,2013-01-12 11:42:00,
2013-01-12 05:52:00,39.0,33.0,-100.00,NW,315,15.0,21.0,78,0.00,,,-99.99,,2013-01-12 11:52:00,
2013-01-12 06:02:00,39.0,33.0,-100.00,NW,315,15.0,21.0,78,0.00,,,-99.99,,2013-01-12 12:02:00,
2013-01-12 06:12:00,39.0,33.0,-100.00,NW,315,13.0,19.0,78,0.00,,,-99.99,,2013-01-12 12:12:00,
2013-01-12 06:22:00,38.0,32.0,-100.00,NW,310,17.0,24.0,79,0.00,,,-99.99,,2013-01-12 12:22:00,
2013-01-12 06:32:00,37.0,31.0,-100.00,NW,305,16.0,23.0,78,0.00,,,-99.99,,2013-01-12 12:32:00,
2013-01-12 06:42:00,37.0,31.0,-100.00,NW,305,16.0,23.0,78,0.00,,,-99.99,,2013-01-12 12:42:00,
2013-01-12 06:52:00,36.0,30.0,-100.00,NW,310,16.0,23.0,78,0.00,,,-99.99,,2013-01-12 12:52:00,
2013-01-12 07:02:00,36.0,30.0,-100.00,NW,310,16.0,23.0,78,0.00,,,-99.99,,2013-01-12 13:02:00,
2013-01-12 07:12:00,36.0,29.0,-100.00,NW,315,14.0,24.0,77,0.00,,,-99.99,,2013-01-12 13:12:00,
2013-01-12 07:22:00,36.0,29.0,-100.00,NW,315,11.0,23.0,77,0.00,,,-99.99,,2013-01-12 13:22:00,
2013-01-12 07:33:00,35.0,28.0,-100.00,NNW,335,18.0,24.0,76,0.00,,,-99.99,,2013-01-12 13:33:00,
2013-01-12 07:42:00,35.0,28.0,-100.00,NNW,335,18.0,24.0,76,0.00,,,-99.99,,2013-01-12 13:42:00,
2013-01-12 07:52:00,34.0,27.0,-100.00,NNW,330,17.0,26.0,74,0.00,,,-99.99,,2013-01-12 13:52:00,
2013-01-12 08:02:00,34.0,27.0,-100.00,NNW,330,17.0,26.0,74,0.00,,,-99.99,,2013-01-12 14:02:00,
2013-01-12 08:12:00,33.0,26.0,-100.00,NNW,330,14.0,26.0,73,0.00,,,-99.99,,2013-01-12 14:12:00,
2013-01-12 08:22:00,33.0,25.0,-100.00,NW,315,14.0,24.0,72,0.00,,,-99.99,,2013-01-12 14:22:00,
2013-01-12 08:33:00,33.0,25.0,-100.00,NW,320,16.0,22.0,73,0.00,,,-99.99,,2013-01-12 14:33:00,
2013-01-12 08:43:00,33.0,25.0,-100.00,NW,320,16.0,22.0,73,0.00,,,-99.99,,2013-01-12 14:43:00,
2013-01-12 08:53:00,33.0,23.0,-100.00,NW,315,17.0,28.0,68,0.00,,,-99.99,,2013-01-12 14:53:00,
2013-01-12 09:03:00,33.0,23.0,-100.00,NW,315,17.0,28.0,68,0.00,,,-99.99,,2013-01-12 15:03:00,
2013-01-12 09:12:00,32.0,23.0,-100.00,NW,320,17.0,23.0,68,0.00,,,-99.99,,2013-01-12 15:12:00,
2013-01-12 09:22:00,32.0,23.0,-100.00,NW,320,13.0,24.0,68,0.00,,,-99.99,,2013-01-12 15:22:00,
2013-01-12 09:33:00,31.0,22.0,-100.00,NNW,330,19.0,23.0,68,0.00,,,-99.99,,2013-01-12 15:33:00,
2013-01-12 09:42:00,31.0,22.0,-100.00,NNW,330,19.0,23.0,68,0.00,,,-99.99,,2013-01-12 15:42:00,
2013-01-12 09:52:00,31.0,21.0,-100.00,NNW,340,16.0,21.0,66,0.00,,,-99.99,,2013-01-12 15:52:00,
2013-01-12 10:03:00,31.0,21.0,-100.00,NNW,340,16.0,21.0,66,0.00,,,-99.99,,2013-01-12 16:03:00,
2013-01-12 10:12:00,31.0,21.0,-100.00,NNW,335,12.0,19.0,66,0.00,,,-99.99,,2013-01-12 16:12:00,
2013-01-12 10:23:00,32.0,22.0,-100.00,NW,325,12.0,18.0,66,0.00,,,-99.99,,2013-01-12 16:23:00,
2013-01-12 10:33:00,31.0,21.0,-100.00,NW,325,11.0,16.0,64,0.00,,,-99.99,,2013-01-12 16:33:00,
2013-01-12 10:42:00,31.0,21.0,-100.00,NW,325,11.0,16.0,64,0.00,,,-99.99,,2013-01-12 16:42:00,
2013-01-12 10:52:00,32.0,22.0,-100.00,NW,320,13.0,19.0,65,0.00,,,-99.99,,2013-01-12 16:52:00,
2013-01-12 11:02:00,32.0,22.0,-100.00,NW,320,13.0,19.0,65,0.00,,,-99.99,,2013-01-12 17:02:00,
2013-01-12 11:12:00,33.0,21.0,-100.00,WNW,300,13.0,17.0,62,0.00,,,-99.99,,2013-01-12 17:12:00,
2013-01-12 11:22:00,33.0,21.0,-100.00,NW,315,10.0,16.0,62,0.00,,,-99.99,,2013-01-12 17:22:00,
2013-01-12 11:33:00,32.0,21.0,-100.00,NW,320,10.0,17.0,61,0.00,,,-99.99,,2013-01-12 17:33:00,
2013-01-12 11:42:00,32.0,21.0,-100.00,NW,320,10.0,17.0,61,0.00,,,-99.99,,2013-01-12 17:42:00,
2013-01-12 11:53:00,33.0,22.0,-100.00,WNW,290,11.0,17.0,62,0.00,,,-99.99,,2013-01-12 17:53:00,
2013-01-12 12:03:00,33.0,22.0,-100.00,WNW,290,11.0,17.0,62,0.00,,,-99.99,,2013-01-12 18:03:00,
2013-01-12 12:12:00,32.0,21.0,-100.00,WNW,285,13.0,17.0,62,0.00,,,-99.99,,2013-01-12 18:12:00,
2013-01-12 12:22:00,31.0,20.0,-100.00,NW,315,12.0,17.0,62,0.00,,,-99.99,,2013-01-12 18:22:00,
2013-01-12 12:33:00,32.0,20.0,-100.00,NW,310,15.0,20.0,61,0.00,,,-99.99,,2013-01-12 18:33:00,
2013-01-12 12:42:00,32.0,20.0,-100.00,NW,310,15.0,20.0,61,0.00,,,-99.99,,2013-01-12 18:42:00,
2013-01-12 12:52:00,32.0,20.0,-100.00,NW,310,11.0,20.0,59,0.00,,,-99.99,,2013-01-12 18:52:00,
2013-01-12 13:03:00,32.0,20.0,-100.00,NW,310,11.0,20.0,59,0.00,,,-99.99,,2013-01-12 19:03:00,
2013-01-12 13:12:00,31.0,18.0,-100.00,NW,325,10.0,16.0,57,0.00,,,-99.99,,2013-01-12 19:12:00,
2013-01-12 13:22:00,31.0,18.0,-100.00,NW,315,12.0,17.0,56,0.00,,,-99.99,,2013-01-12 19:22:00,
2013-01-12 13:33:00,30.0,16.0,-100.00,NW,310,12.0,17.0,54,0.00,,,-99.99,,2013-01-12 19:33:00,
2013-01-12 13:42:00,30.0,16.0,-100.00,NW,310,12.0,17.0,54,0.00,,,-99.99,,2013-01-12 19:42:00,
2013-01-12 13:52:00,30.0,15.0,-100.00,NW,325,11.0,17.0,53,0.00,,,-99.99,,2013-01-12 19:52:00,
2013-01-12 14:02:00,30.0,15.0,-100.00,NW,325,11.0,17.0,53,0.00,,,-99.99,,2013-01-12 20:02:00,
2013-01-12 14:12:00,30.0,15.0,-100.00,NNW,340,16.0,19.0,54,0.00,,,-99.99,,2013-01-12 20:12:00,
2013-01-12 14:22:00,29.0,15.0,-100.00,NNW,340,14.0,19.0,54,0.00,,,-99.99,,2013-01-12 20:22:00,
2013-01-12 14:32:00,28.0,15.0,-100.00,North,0,15.0,21.0,58,0.00,,,-99.99,,2013-01-12 20:32:00,
2013-01-12 14:42:00,28.0,15.0,-100.00,North,0,15.0,21.0,58,0.00,,,-99.99,,2013-01-12 20:42:00,
2013-01-12 14:53:00,28.0,16.0,-100.00,North,0,12.0,17.0,58,0.00,,,-99.99,,2013-01-12 20:53:00,
2013-01-12 15:03:00,28.0,16.0,-100.00,North,0,12.0,17.0,58,0.00,,,-99.99,,2013-01-12 21:03:00,
2013-01-12 15:12:00,28.0,15.0,-100.00,NNW,340,13.0,17.0,58,0.00,,,-99.99,,2013-01-12 21:12:00,
2013-01-12 15:22:00,28.0,15.0,-100.00,North,0,13.0,18.0,58,0.00,,,-99.99,,2013-01-12 21:22:00,
2013-01-12 15:33:00,28.0,15.0,-100.00,NNW,345,13.0,20.0,58,0.00,,,-99.99,,2013-01-12 21:33:00,
2013-01-12 15:42:00,28.0,15.0,-100.00,NNW,345,13.0,20.0,58,0.00,,,-99.99,,2013-01-12 21:42:00,
2013-01-12 15:52:00,28.0,15.0,-100.00,North,0,12.0,18.0,59,0.00,,,-99.99,,2013-01-12 21:52:00,
2013-01-12 16:02:00,28.0,15.0,-100.00,North,0,12.0,18.0,59,0.00,,,-99.99,,2013-01-12 22:02:00,
2013-01-12 16:12:00,27.0,15.0,-100.00,North,355,12.0,17.0,59,0.00,,,-99.99,,2013-01-12 22:12:00,
2013-01-12 16:22:00,27.0,15.0,-100.00,North,355,12.0,16.0,59,0.00,,,-99.99,,2013-01-12 22:22:00,
2013-01-12 16:33:00,27.0,15.0,-100.00,North,5,11.0,18.0,60,0.00,,,-99.99,,2013-01-12 22:33:00,
2013-01-12 16:43:00,27.0,15.0,-100.00,North,5,11.0,18.0,60,0.00,,,-99.99,,2013-01-12 22:43:00,
2013-01-12 16:52:00,27.0,15.0,-100.00,North,0,7.0,14.0,60,0.00,,,-99.99,,2013-01-12 22:52:00,
2013-01-12 17:02:00,27.0,15.0,-100.00,North,0,7.0,14.0,60,0.00,,,-99.99,,2013-01-12 23:02:00,
2013-01-12 17:12:00,27.0,15.0,-100.00,North,0,10.0,13.0,60,0.00,,,-99.99,,2013-01-12 23:12:00,
2013-01-12 17:22:00,27.0,15.0,-100.00,North,350,7.0,12.0,60,0.00,,,-99.99,,2013-01-12 23:22:00,
2013-01-12 17:33:00,26.0,15.0,-100.00,North,355,12.0,16.0,60,0.00,,,-99.99,,2013-01-12 23:33:00,
2013-01-12 17:42:00,26.0,15.0,-100.00,North,355,12.0,16.0,60,0.00,,,-99.99,,2013-01-12 23:42:00,
2013-01-12 17:52:00,27.0,15.0,-100.00,North,355,9.0,16.0,60,0.00,,,-99.99,,2013-01-12 23:52:00,
2013-01-12 18:03:00,27.0,15.0,-100.00,North,355,9.0,16.0,60,0.00,,,-99.99,,2013-01-13 00:03:00,
2013-01-12 18:12:00,27.0,15.0,-100.00,North,10,11.0,16.0,60,0.00,,,-99.99,,2013-01-13 00:12:00,
2013-01-12 18:22:00,27.0,15.0,-100.00,North,350,13.0,16.0,61,0.00,,,-99.99,,2013-01-13 00:22:00,
2013-01-12 18:33:00,26.0,15.0,-100.00,North,0,17.0,21.0,61,0.00,,,-99.99,,2013-01-13 00:33:00,
2013-01-12 18:42:00,26.0,15.0,-100.00,North,0,17.0,21.0,61,0.00,,,-99.99,,2013-01-13 00:42:00,
2013-01-12 18:52:00,26.0,14.0,-100.00,North,0,16.0,22.0,59,0.00,,,-99.99,,2013-01-13 00:52:00,
2013-01-12 19:02:00,26.0,14.0,-100.00,North,0,16.0,22.0,59,0.00,,,-99.99,,2013-01-13 01:02:00,
2013-01-12 19:12:00,26.0,14.0,-100.00,NNW,345,15.0,21.0,59,0.00,,,-99.99,,2013-01-13 01:12:00,
2013-01-12 19:22:00,26.0,13.0,-100.00,North,355,14.0,22.0,59,0.00,,,-99.99,,2013-01-13 01:22:00,
2013-01-12 19:32:00,25.0,13.0,-100.00,North,355,14.0,20.0,58,0.00,,,-99.99,,2013-01-13 01:32:00,
2013-01-12 19:42:00,25.0,13.0,-100.00,North,355,14.0,20.0,58,0.00,,,-99.99,,2013-01-13 01:42:00,
2013-01-12 19:52:00,25.0,13.0,-100.00,North,0,12.0,18.0,59,0.00,,,-99.99,,2013-01-13 01:52:00,
2013-01-12 20:02:00,25.0,13.0,-100.00,North,0,12.0,18.0,59,0.00,,,-99.99,,2013-01-13 02:02:00,
2013-01-12 20:12:00,25.0,13.0,-100.00,North,355,13.0,18.0,60,0.00,,,-99.99,,2013-01-13 02:12:00,
2013-01-12 20:22:00,25.0,13.0,-100.00,North,0,15.0,19.0,60,0.00,,,-99.99,,2013-01-13 02:22:00,
2013-01-12 20:32:00,23.0,15.0,-100.00,NNE,15,14.0,19.0,72,0.11,,,-99.99,,2013-01-13 02:32:00,
2013-01-12 20:42:00,23.0,15.0,-100.00,NNE,15,14.0,19.0,72,0.11,,,-99.99,,2013-01-13 02:42:00,
2013-01-12 20:52:00,22.0,17.0,-100.00,North,10,11.0,18.0,78,0.07,,,-99.99,,2013-01-13 02:52:00,
2013-01-12 21:02:00,22.0,17.0,-100.00,North,10,11.0,18.0,78,0.07,,,-99.99,,2013-01-13 03:02:00,
2013-01-12 21:12:00,22.0,17.0,-100.00,NNE,15,11.0,16.0,81,0.01,,,-99.99,,2013-01-13 03:12:00,
2013-01-12 21:22:00,22.0,17.0,-100.00,NNE,25,17.0,21.0,82,0.01,,,-99.99,,2013-01-13 03:22:00,
2013-01-12 21:33:00,22.0,17.0,-100.00,NNE,20,18.0,21.0,81,0.03,,,-99.99,,2013-01-13 03:33:00,
2013-01-12 21:42:00,22.0,17.0,-100.00,NNE,20,18.0,21.0,81,0.03,,,-99.99,,2013-01-13 03:42:00,
2013-01-12 21:52:00,21.0,16.0,-100.00,NNE,15,19.0,26.0,79,0.03,,,-99.99,,2013-01-13 03:52:00,
2013-01-12 22:02:00,21.0,16.0,-100.00,NNE,15,19.0,26.0,79,0.03,,,-99.99,,2013-01-13 04:02:00,
2013-01-12 22:12:00,21.0,16.0,-100.00,NNE,15,19.0,22.0,80,0.07,,,-99.99,,2013-01-13 04:12:00,
2013-01-12 22:22:00,21.0,17.0,-100.00,NNE,15,14.0,22.0,81,0.10,,,-99.99,,2013-01-13 04:22:00,
2013-01-12 22:33:00,21.0,17.0,-100.00,NNE,20,14.0,17.0,82,0.03,,,-99.99,,2013-01-13 04:33:00,
2013-01-12 22:42:00,21.0,17.0,-100.00,NNE,20,14.0,17.0,82,0.03,,,-99.99,,2013-01-13 04:42:00,
2013-01-12 22:52:00,22.0,17.0,-100.00,North,0,12.0,14.0,82,0.00,,,-99.99,,2013-01-13 04:52:00,
2013-01-12 23:03:00,22.0,17.0,-100.00,North,0,12.0,14.0,82,0.00,,,-99.99,,2013-01-13 05:03:00,
2013-01-12 23:12:00,22.0,17.0,-100.00,North,5,15.0,18.0,80,0.06,,,-99.99,,2013-01-13 05:12:00,
2013-01-12 23:22:00,22.0,16.0,-100.00,North,10,11.0,19.0,77,0.03,,,-99.99,,2013-01-13 05:22:00,
2013-01-12 23:32:00,21.0,16.0,-100.00,North,10,14.0,19.0,80,0.07,,,-99.99,,2013-01-13 05:32:00,
2013-01-12 23:42:00,21.0,16.0,-100.00,North,10,14.0,19.0,80,0.07,,,-99.99,,2013-01-13 05:42:00,
2013-01-12 23:52:00,20.0,15.0,-100.00,NNE,15,15.0,22.0,82,0.01,,,-99.99,,2013-01-13 05:52:00,